Location: Hackbridge
(51.3833°N, 0.1500°W)
Time: 07:12:36
(UTC+00:00)

Cosmos 1758 - Pass Details

Date: 13 October 2019
Orbit: 540 x 563 km, 82.5° (Epoch: 13 November)

Event Time Altitude Azimuth Distance (km) Brightness Sun altitude
Rises 17:46:52 0° 179° (S) 2,701 6.9 -6.1°
Reaches altitude 10° 17:49:02 10° 176° (S) 1,810 6.0 -6.5°
Maximum altitude 17:52:57 60° 96° (E) 630 3.3 -7.1°
Drops below altitude 10° 17:56:53 10° 17° (NNE) 1,818 5.8 -7.7°
Sets 17:59:04 0° 14° (NNE) 2,715 6.7 -8.0°
